DW1352 Weather Reports


Display with metric or nautical units.
time (UTC)temp
F
wind
direction
speed
MPH
gust
MPH
rain 1hr
in
rain 24hr
in
rain mn
in
humidity
%
barometer
mb
20260504150225 69 284 3.0 9.0 0.00 0.00 0.00 41 1003.8
20260504141231 64 6 4.0 12.0 0.00 0.00 0.00 46 1004.3
20260504100157 49 13 3.0 3.0 0.00 0.00 0.00 69 1003.4
20260504081154 56 13 4.0 6.0 0.00 0.00 0.00 49 1003.6
20260504080204 56 18 4.0 10.0 0.00 0.00 0.00 49 1003.7
20260504070158 56 166 7.0 12.0 0.00 0.00 0.00 48 1004.7
20260504060210 56 159 4.0 7.0 0.00 0.00 0.00 50 1006.0
20260504045208 56 144 3.0 6.0 0.00 0.00 0.00 52 1006.8
20260504044200 56 154 3.0 9.0 0.00 0.00 0.00 52 1006.9
20260504043157 56 142 2.0 7.0 0.00 0.00 0.00 52 1006.9
20260504042216 56 147 4.0 9.0 0.00 0.00 0.00 51 1007.1
20260504041234 57 145 3.0 6.0 0.00 0.00 0.00 52 1007.1
20260504040156 57 131 3.0 6.0 0.00 0.00 0.00 52 1007.0
20260504035202 57 146 3.0 6.0 0.00 0.00 0.00 51 1007.0
20260504034205 58 133 3.0 5.0 0.00 0.00 0.00 51 1007.0
20260504032208 59 140 4.0 8.0 0.00 0.00 0.00 48 1007.0
20260504030235 60 125 2.0 5.0 0.00 0.00 0.00 49 1007.2
20260504024208 61 6 0.0 3.0 0.00 0.00 0.00 45 1007.3
20260504023209 62 6 0.0 3.0 0.00 0.00 0.00 44 1007.4
20260504022231 62 6 1.0 5.0 0.00 0.00 0.00 43 1007.4
20260504020236 64 6 2.0 3.0 0.00 0.00 0.00 41 1007.6
20260504015158 65 6 0.0 2.0 0.00 0.00 0.00 40 1007.4
20260504014225 65 58 1.0 2.0 0.00 0.00 0.00 39 1007.3
20260504013202 66 86 1.0 5.0 0.00 0.00 0.00 40 1007.4
20260504012209 66 6 2.0 5.0 0.00 0.00 0.00 40 1007.4
20260504011223 67 6 2.0 3.0 0.00 0.00 0.00 40 1007.5
20260504010239 67 6 1.0 3.0 0.00 0.00 0.00 38 1007.4
20260504005236 68 6 1.0 2.0 0.00 0.00 0.00 38 1007.6
20260504004206 69 6 2.0 6.0 0.00 0.00 0.00 38 1007.8
20260504003220 69 6 2.0 5.0 0.00 0.00 0.00 37 1007.9
20260504002206 69 6 2.0 7.0 0.00 0.00 0.00 36 1008.1
20260504001200 70 6 2.0 5.0 0.00 0.00 0.00 34 1008.2
20260504000204 70 6 2.0 7.0 0.00 0.00 0.00 34 1008.5
20260503234208 71 6 4.0 9.0 0.00 0.00 0.00 35 1008.6
20260503233213 71 6 1.0 5.0 0.00 0.00 0.00 34 1008.7
20260503232235 71 6 2.0 5.0 0.00 0.00 0.00 37 1008.6
20260503231205 71 6 3.0 5.0 0.00 0.00 0.00 32 1008.7
20260503230203 71 6 4.0 9.0 0.00 0.00 0.00 33 1008.6
20260503225203 71 144 1.0 3.0 0.00 0.00 0.00 37 1008.7
20260503224234 71 19 0.0 3.0 0.00 0.00 0.00 33 1008.9
20260503223244 72 84 1.0 6.0 0.00 0.00 0.00 29 1008.9
20260503222234 72 34 1.0 6.0 0.00 0.00 0.00 31 1008.9
20260503221228 72 58 3.0 10.0 0.00 0.00 0.00 32 1009.0
20260503220204 73 113 3.0 7.0 0.00 0.00 0.00 30 1009.1
20260503213224 74 157 1.0 9.0 0.00 0.00 0.00 29 1009.7
20260503212237 74 91 1.0 11.0 0.00 0.00 0.00 33 1009.5
20260503211234 73 38 2.0 7.0 0.00 0.00 0.00 31 1009.6
20260503210231 73 161 5.0 12.0 0.00 0.00 0.00 31 1009.8
20260503204227 74 77 4.0 11.0 0.00 0.00 0.00 34 1010.1
20260503203208 73 76 2.0 12.0 0.00 0.00 0.00 34 1010.2
20260503202206 73 144 1.0 13.0 0.00 0.00 0.00 34 1010.3
20260503201217 73 71 3.0 12.0 0.00 0.00 0.00 34 1010.5
20260503194241 73 98 3.0 15.0 0.00 0.00 0.00 35 1010.8
20260503193211 73 205 3.0 8.0 0.00 0.00 0.00 32 1010.9
20260503185238 72 5 4.0 11.0 0.00 0.00 0.00 32 1011.3
20260503184243 72 6 3.0 12.0 0.00 0.00 0.00 32 1011.4
20260503183243 71 34 3.0 9.0 0.00 0.00 0.00 36 1011.5
20260503182229 71 46 4.0 12.0 0.00 0.00 0.00 34 1011.7
20260503181226 71 56 4.0 11.0 0.00 0.00 0.00 35 1011.8
20260503175218 71 28 3.0 14.0 0.00 0.00 0.00 34 1012.3
20260503173242 70 6 5.0 14.0 0.00 0.00 0.00 33 1012.5
20260503172222 70 6 3.0 11.0 0.00 0.00 0.00 37 1012.7
20260503171234 69 6 6.0 12.0 0.00 0.00 0.00 36 1012.8
20260503170237 69 6 3.0 11.0 0.00 0.00 0.00 36 1012.9